Weather History for PAWG - February, 2012

Change the Weather History Date:

Tuesday, February 14, 2012

  Actual Average Record
Temperature  
Mean Temperature 34 °F -  
Max Temperature 39 °F 38 °F 49 °F (1991)
Min Temperature 30 °F 25 °F -2 °F (1954)
Degree Days  
Heating Degree Days 30    
Moisture  
Dew Point 28 °F    
Average Humidity 76    
Maximum Humidity 87    
Minimum Humidity 61    
Precipitation  
Precipitation 0.00 in - - ()
Sea Level Pressure  
Sea Level Pressure 30.03 in    
Wind  
Wind Speed 5 mph (SE)    
Max Wind Speed 14 mph    
Max Gust Speed -    
Visibility 10 miles    
Events      
Averages and records for this station are not official NWS values.
T = Trace of Precipitation, MM = Missing Value Source: NWS Daily Summary

Daily Weather History Graph

Daily Weather History Graph

Search for Another Location

Airport or City:

Trip Planner

Search our weather history database for the weather conditions in past years. The results will help you decide how hot, cold, wet, or windy it might be!

Date:

Astronomy

Feb. 14, 2012 Rise Set
Actual Time 7:19 AM AKST 4:49 PM AKST
Civil Twilight 6:39 AM AKST 5:28 PM AKST
Nautical Twilight 5:55 AM AKST 6:12 PM AKST
Astronomical Twilight 5:12 AM AKST 6:56 PM AKST
Moon 1:42 AM AKST (2/14) 9:27 AM AKST (2/14)
Length of Visible Light 10h 49m
Length of Day
9h 30m
Waning Gibbous, 48% of the Moon is Illuminated
Feb 14
Waning Gibbous
Feb 21
New
Feb 29
First Quarter
Mar 8
Full
Mar 14
Last Quarter

Hourly Weather History & Observations

Time (AKST) Temp. Windchill Dew Point Humidity Pressure Visibility Wind Dir Wind Speed Gust Speed Precip Events Conditions
12:16 AM 32.0 °F - 26.6 °F 80% 29.92 in 10.0 mi Calm Calm - N/A   Clear
12:36 AM 32.0 °F - 26.6 °F 80% 29.92 in 10.0 mi Calm Calm - N/A   Clear
12:56 AM 32.0 °F 26.4 °F 26.6 °F 80% 29.92 in 10.0 mi SE 5.8 mph - N/A   Clear
1:16 AM 33.8 °F 30.8 °F 28.4 °F 81% 29.93 in 10.0 mi SE 3.5 mph - N/A   Clear
1:36 AM 33.8 °F 27.0 °F 28.4 °F 81% 29.92 in 10.0 mi SE 8.1 mph - N/A   Clear
1:56 AM 33.8 °F 26.4 °F 28.4 °F 81% 29.92 in 10.0 mi ESE 9.2 mph - N/A   Clear
2:16 AM 33.8 °F 26.4 °F 28.4 °F 81% 29.92 in 10.0 mi SE 9.2 mph - N/A   Clear
2:36 AM 33.8 °F 25.8 °F 28.4 °F 81% 29.92 in 10.0 mi ESE 10.4 mph - N/A   Clear
2:56 AM 33.8 °F 26.4 °F 28.4 °F 81% 29.92 in 10.0 mi East 9.2 mph - N/A   Clear
3:16 AM 33.8 °F 27.7 °F 28.4 °F 81% 29.93 in 10.0 mi ESE 6.9 mph - N/A   Clear
3:36 AM 33.8 °F 25.3 °F 28.4 °F 81% 29.92 in 10.0 mi ESE 11.5 mph - N/A   Clear
3:56 AM 33.8 °F 29.6 °F 28.4 °F 81% 29.94 in 10.0 mi South 4.6 mph - N/A   Clear
4:16 AM 33.8 °F 29.6 °F 28.4 °F 81% 29.95 in 10.0 mi South 4.6 mph - N/A   Clear
4:36 AM 33.8 °F 29.6 °F 28.4 °F 81% 29.96 in 10.0 mi SSE 4.6 mph - N/A   Clear
4:56 AM 33.8 °F 28.6 °F 28.4 °F 81% 29.98 in 10.0 mi SSE 5.8 mph - N/A   Clear
5:16 AM 33.8 °F 30.8 °F 28.4 °F 81% 29.99 in 10.0 mi SE 3.5 mph - N/A   Clear
5:36 AM 33.8 °F - 28.4 °F 81% 30.00 in 10.0 mi Calm Calm - N/A   Clear
5:56 AM 32.0 °F - 26.6 °F 80% 30.01 in 10.0 mi Calm Calm - N/A   Clear
6:16 AM 32.0 °F - 26.6 °F 80% 30.01 in 10.0 mi Calm Calm - N/A   Clear
6:36 AM 32.0 °F - 26.6 °F 80% 30.02 in 10.0 mi Calm Calm - N/A   Clear
6:56 AM 30.2 °F - 26.6 °F 86% 30.03 in 10.0 mi Calm Calm - N/A   Clear
7:16 AM 30.2 °F 25.4 °F 26.6 °F 86% 30.03 in 10.0 mi SSE 4.6 mph - N/A   Clear
7:36 AM 32.0 °F 26.4 °F 26.6 °F 80% 30.03 in 10.0 mi SSE 5.8 mph - N/A   Clear
7:56 AM 32.0 °F 25.6 °F 28.4 °F 87% 30.03 in 10.0 mi SE 6.9 mph - N/A   Clear
8:16 AM 33.8 °F 26.4 °F 28.4 °F 81% 30.03 in 10.0 mi SE 9.2 mph - N/A   Clear
8:36 AM 33.8 °F 28.6 °F 28.4 °F 81% 30.04 in 10.0 mi SE 5.8 mph - N/A   Clear
8:56 AM 33.8 °F 27.7 °F 30.2 °F 87% 30.05 in 10.0 mi ESE 6.9 mph - N/A   Clear
9:16 AM 33.8 °F 27.7 °F 28.4 °F 81% 30.06 in 10.0 mi East 6.9 mph - N/A   Clear
9:36 AM 35.6 °F 30.7 °F 30.2 °F 81% 30.07 in 10.0 mi SE 5.8 mph - N/A   Clear
9:56 AM 35.6 °F 30.7 °F 28.4 °F 75% 30.08 in 10.0 mi ESE 5.8 mph - N/A   Clear
10:16 AM 35.6 °F 30.7 °F 28.4 °F 75% 30.09 in 10.0 mi SE 5.8 mph - N/A   Clear
10:36 AM 35.6 °F 28.0 °F 30.2 °F 81% 30.07 in 10.0 mi East 10.4 mph - N/A   Clear
10:56 AM 37.4 °F 28.9 °F 30.2 °F 75% 30.07 in 10.0 mi ESE 13.8 mph - N/A   Clear
11:16 AM 37.4 °F 30.3 °F 28.4 °F 70% 30.07 in 10.0 mi ESE 10.4 mph - N/A   Clear
11:36 AM 37.4 °F 32.1 °F 28.4 °F 70% 30.06 in 10.0 mi SE 6.9 mph - N/A   Clear
11:56 AM 39.2 °F 35.0 °F 30.2 °F 70% 30.06 in 10.0 mi East 5.8 mph - N/A   Clear
12:16 PM 39.2 °F 35.9 °F 30.2 °F 70% 30.06 in 10.0 mi East 4.6 mph - N/A   Clear
12:36 PM 39.2 °F - 28.4 °F 65% 30.07 in 10.0 mi Calm Calm - N/A   Clear
12:56 PM 39.2 °F 35.0 °F 28.4 °F 65% 30.08 in 10.0 mi NW 5.8 mph - N/A   Clear
1:16 PM 39.2 °F 35.9 °F 28.4 °F 65% 30.09 in 10.0 mi NW 4.6 mph - N/A   Clear
1:36 PM 39.2 °F 37.0 °F 26.6 °F 61% 30.09 in 10.0 mi WSW 3.5 mph - N/A   Clear
1:56 PM 39.2 °F - 28.4 °F 65% 30.09 in 10.0 mi Calm Calm - N/A   Clear
2:16 PM 39.2 °F 37.0 °F 28.4 °F 65% 30.09 in 10.0 mi West 3.5 mph - N/A   Clear
2:36 PM 39.2 °F 37.0 °F 30.2 °F 70% 30.07 in 10.0 mi ENE 3.5 mph - N/A   Clear
2:56 PM 39.2 °F - 28.4 °F 65% 30.07 in 10.0 mi Calm Calm - N/A   Clear
3:16 PM 37.4 °F - 28.4 °F 70% 30.07 in 10.0 mi Calm Calm - N/A   Clear
3:36 PM 37.4 °F 33.8 °F 28.4 °F 70% 30.08 in 10.0 mi WNW 4.6 mph - N/A   Clear
3:56 PM 35.6 °F 30.7 °F 28.4 °F 75% 30.11 in 10.0 mi WSW 5.8 mph - N/A   Scattered Clouds
4:16 PM 37.4 °F 34.9 °F 28.4 °F 70% 30.12 in 10.0 mi West 3.5 mph - N/A   Scattered Clouds
4:36 PM 37.4 °F - 26.6 °F 65% 30.11 in 10.0 mi Calm Calm - N/A   Scattered Clouds
4:56 PM 37.4 °F 33.8 °F 26.6 °F 65% 30.12 in 10.0 mi SSE 4.6 mph - N/A   Overcast
5:16 PM 35.6 °F 30.7 °F 26.6 °F 70% 30.11 in 10.0 mi SE 5.8 mph - N/A   Overcast
5:36 PM 35.6 °F 29.9 °F 26.6 °F 70% 30.10 in 10.0 mi SE 6.9 mph - N/A   Overcast
5:56 PM 33.8 °F 28.6 °F 28.4 °F 81% 30.10 in 10.0 mi South 5.8 mph - N/A   Mostly Cloudy
6:16 PM 33.8 °F 28.6 °F 28.4 °F 81% 30.11 in 10.0 mi SSE 5.8 mph - N/A   Mostly Cloudy
6:36 PM 33.8 °F 27.0 °F 28.4 °F 81% 30.11 in 10.0 mi SSE 8.1 mph - N/A   Mostly Cloudy
6:56 PM 33.8 °F 27.7 °F 28.4 °F 81% 30.13 in 10.0 mi SSE 6.9 mph - N/A   Clear
7:16 PM 33.8 °F 28.6 °F 28.4 °F 81% 30.13 in 10.0 mi SE 5.8 mph - N/A   Clear
7:36 PM 33.8 °F 28.6 °F 28.4 °F 81% 30.13 in 10.0 mi SE 5.8 mph - N/A   Clear
7:56 PM 33.8 °F 28.6 °F 28.4 °F 81% 30.14 in 10.0 mi SE 5.8 mph - N/A   Clear
8:16 PM 33.8 °F 27.7 °F 28.4 °F 81% 30.14 in 10.0 mi SSE 6.9 mph - N/A   Clear
8:36 PM 33.8 °F 27.7 °F 28.4 °F 81% 30.14 in 10.0 mi SE 6.9 mph - N/A   Clear
8:56 PM 33.8 °F 27.7 °F 28.4 °F 81% 30.14 in 10.0 mi SE 6.9 mph - N/A   Scattered Clouds
9:16 PM 32.0 °F 25.6 °F 28.4 °F 87% 30.14 in 10.0 mi SE 6.9 mph - N/A   Scattered Clouds
9:36 PM 32.0 °F 25.6 °F 28.4 °F 87% 30.14 in 10.0 mi SE 6.9 mph - N/A   Scattered Clouds
9:56 PM 32.0 °F 26.4 °F 28.4 °F 87% 30.14 in 10.0 mi SE 5.8 mph - N/A   Scattered Clouds
10:16 PM 32.0 °F 26.4 °F 26.6 °F 80% 30.14 in 10.0 mi SE 5.8 mph - N/A   Scattered Clouds
10:36 PM 33.8 °F 26.4 °F 28.4 °F 81% 30.14 in 10.0 mi SE 9.2 mph - N/A   Scattered Clouds
10:56 PM 33.8 °F 27.0 °F 28.4 °F 81% 30.15 in 10.0 mi ESE 8.1 mph - N/A   Scattered Clouds
11:16 PM 33.8 °F 26.4 °F 28.4 °F 81% 30.15 in 10.0 mi ESE 9.2 mph - N/A   Clear
11:36 PM 33.8 °F 25.8 °F 28.4 °F 81% 30.15 in 10.0 mi East 10.4 mph - N/A   Clear
11:56 PM 33.8 °F 26.4 °F 28.4 °F 81% 30.14 in 10.0 mi East 9.2 mph - N/A   Clear